TimeCDT,TemperatureF,Dew PointF,Humidity,Sea Level PressureIn,VisibilityMPH,Wind Direction,Wind SpeedMPH,Gust SpeedMPH,PrecipitationIn,Events,Conditions,WindDirDegrees,DateUTC
12:15 AM,55.4,51.8,88,30.04,10.0,West,6.9,-,N/A,,Clear,270,2013-09-04 05:15:00
12:35 AM,55.4,51.8,88,30.04,10.0,West,8.1,-,N/A,,Clear,280,2013-09-04 05:35:00
12:55 AM,57.2,51.8,82,30.04,7.0,West,11.5,-,N/A,,Clear,280,2013-09-04 05:55:00
1:15 AM,57.2,51.8,82,30.04,10.0,West,6.9,-,N/A,,Clear,270,2013-09-04 06:15:00
1:35 AM,55.4,51.8,88,30.03,10.0,West,4.6,-,N/A,,Clear,270,2013-09-04 06:35:00
1:55 AM,55.4,51.8,88,30.03,10.0,West,4.6,-,N/A,,Clear,280,2013-09-04 06:55:00
2:15 AM,55.4,51.8,88,30.03,7.0,West,6.9,-,N/A,,Clear,280,2013-09-04 07:15:00
2:35 AM,55.4,51.8,88,30.03,10.0,West,6.9,-,N/A,,Clear,270,2013-09-04 07:35:00
2:55 AM,55.4,51.8,88,30.03,10.0,West,5.8,-,N/A,,Clear,280,2013-09-04 07:55:00
3:15 AM,55.4,51.8,88,30.03,7.0,West,5.8,-,N/A,,Clear,280,2013-09-04 08:15:00
3:35 AM,55.4,51.8,88,30.03,7.0,West,5.8,-,N/A,,Clear,270,2013-09-04 08:35:00
3:55 AM,55.4,51.8,88,30.04,7.0,West,6.9,-,N/A,,Clear,280,2013-09-04 08:55:00
4:15 AM,55.4,51.8,88,30.04,10.0,West,5.8,-,N/A,,Clear,270,2013-09-04 09:15:00
4:35 AM,55.4,51.8,88,30.05,10.0,West,4.6,-,N/A,,Clear,270,2013-09-04 09:35:00
4:55 AM,53.6,51.8,94,30.05,10.0,West,3.5,-,N/A,,Clear,260,2013-09-04 09:55:00
5:15 AM,55.4,51.8,88,30.05,10.0,West,5.8,-,N/A,,Clear,270,2013-09-04 10:15:00
5:35 AM,55.4,53.6,94,30.06,10.0,West,5.8,-,N/A,,Clear,270,2013-09-04 10:35:00
5:45 AM,55.4,53.6,94,30.06,10.0,West,5.8,-,N/A,,Clear,270,2013-09-04 10:45:00
6:45 AM,57.2,55.4,94,30.07,10.0,WSW,4.6,-,N/A,,Clear,250,2013-09-04 11:45:00
7:45 AM,62.6,57.2,82,30.09,10.0,West,6.9,-,N/A,,Clear,260,2013-09-04 12:45:00
8:45 AM,64.4,57.2,77,30.10,10.0,West,6.9,-,N/A,,Clear,260,2013-09-04 13:45:00
9:45 AM,68.0,60.8,78,30.10,10.0,NW,8.1,-,N/A,,Clear,310,2013-09-04 14:45:00
10:45 AM,69.8,62.6,78,30.12,10.0,NW,6.9,-,N/A,,Clear,310,2013-09-04 15:45:00
11:45 AM,71.6,62.6,73,30.13,10.0,Calm,Calm,-,N/A,,Clear,0,2013-09-04 16:45:00
12:45 PM,73.4,62.6,69,30.12,10.0,Calm,Calm,-,N/A,,Clear,0,2013-09-04 17:45:00
1:45 PM,75.2,62.6,65,30.11,10.0,WNW,5.8,-,N/A,,Scattered Clouds,290,2013-09-04 18:45:00
2:45 PM,75.2,62.6,65,30.12,10.0,Variable,4.6,-,N/A,,Scattered Clouds,0,2013-09-04 19:45:00
3:50 PM,75.2,62.6,65,30.11,10.0,Variable,4.6,-,N/A,,Scattered Clouds,0,2013-09-04 20:50:00
4:45 PM,75.2,62.6,65,30.11,10.0,Variable,4.6,-,N/A,,Scattered Clouds,0,2013-09-04 21:45:00
5:45 PM,73.4,62.6,69,30.11,10.0,Variable,4.6,-,N/A,,Scattered Clouds,0,2013-09-04 22:45:00
6:45 PM,71.6,62.6,73,30.11,10.0,Calm,Calm,-,N/A,,Scattered Clouds,0,2013-09-04 23:45:00
7:45 PM,68.0,59.0,73,30.13,10.0,NNE,3.5,-,N/A,,Clear,20,2013-09-05 00:45:00
8:50 PM,64.4,57.2,77,30.15,10.0,NNE,5.8,-,N/A,,Clear,30,2013-09-05 01:50:00
9:45 PM,62.6,57.2,82,30.16,10.0,NNE,4.6,-,N/A,,Clear,20,2013-09-05 02:45:00
10:15 PM,60.8,55.4,82,30.18,10.0,North,5.8,-,N/A,,Clear,10,2013-09-05 03:15:00
10:35 PM,60.8,55.4,82,30.18,7.0,NNE,6.9,-,N/A,,Clear,20,2013-09-05 03:35:00
10:55 PM,60.8,53.6,77,30.19,10.0,NE,5.8,-,N/A,,Clear,40,2013-09-05 03:55:00
11:15 PM,59.0,53.6,82,30.19,7.0,NNE,6.9,-,N/A,,Clear,30,2013-09-05 04:15:00
11:35 PM,59.0,53.6,82,30.19,10.0,NNE,8.1,-,N/A,,Clear,30,2013-09-05 04:35:00
11:55 PM,59.0,51.8,77,30.19,10.0,NNE,6.9,-,N/A,,Clear,30,2013-09-05 04:55:00